Location: Elmsmere
(40.9284°N, 73.8207°W)
Time: 06:08:42
(UTC+00:00)

Cosmos 1076 Rocket - Pass Details

Date: 29 October 2020
Orbit: 589 x 613 km, 82.5° (Epoch: 27 November)

Event Time Altitude Azimuth Distance (km) Brightness Sun altitude
Rises 23:18:43 0° 356° (N) 2,831 7.0 -16.5°
Reaches altitude 10° 23:20:58 10° 1° (N) 1,927 6.0 -16.9°
Maximum altitude 23:25:08 54° 80° (E) 720 3.5 -17.7°
Drops below altitude 10° 23:29:18 10° 158° (SSE) 1,921 5.9 -18.5°
Sets 23:31:32 0° 163° (SSE) 2,821 6.8 -18.9°
